Location: Aydie
(43.5695°N, 0.1043°W)
Time: 06:18:32
(UTC+00:00)

BREEZE-M DEB (TANK) - Pass Details

Date: 17 November 2025
Orbit: 274 x 13344 km, 49.5° (Epoch: 04 December)

Event Time Altitude Azimuth Distance (km) Brightness Sun altitude
Rises 17:49:17 0° 247° (WSW) 1,994 7.5 -13.7°
Reaches altitude 10° 17:50:38 10° 249° (WSW) 1,324 6.2 -14.0°
Maximum altitude 17:53:06 78° 337° (NNW) 540 2.7 -14.4°
Enters shadow 17:56:27 21° 61° (ENE) 1,883 4.9 -15.0°
